Location: Saint-Palais-sur-Mer
(45.6429°N, 1.0859°W)
Time: 00:55:27
(UTC+02:00)

ISS - Pass Details

Date: 31 May 2020
Orbit: 419 x 420 km, 51.6° (Epoch: 20 September)

Event Time Altitude Azimuth Distance (km) Brightness Sun altitude
Rises 22:11:50 0° 298° (WNW) 2,377 2.4 -4.5°
Reaches altitude 10° 22:13:56 10° 300° (WNW) 1,511 0.9 -4.8°
Maximum altitude 22:17:20 79° 28° (NNE) 435 -3.6 -5.3°
Drops below altitude 10° 22:20:44 10° 115° (ESE) 1,509 -1.6 -5.7°
Enters shadow 22:21:19 - 115° (ESE) 1,751 -1.2 -5.8°
